Погода в Железнице

Россия / Тульская область     53°36′47″N   36°18′30″E
темп.,
°C
ветер,
м/с
пор.,
м/с
влажн.,
%
обл.,
%
осадки,
мм/ч
давл.,
гПа
погр.,
м
9 мая, вс
вс900:00+6сз71195100 0.7 1004729
03:00+4сз91597100 6.0 1007937
06:00+3сз71497100 1.7 1010721
09:00+6сз81181100 1.8 10121127
12:00+6сз81176100 0.3 10151203
15:00+7сз9116986 0.4 10181417
18:00+9сз71065100 0.1 10181094
21:00+5сз35795 0.1 102171
10 мая, пн
пн1000:00+3сз49845 0.0 1023154
03:00+2ссз411831 0.0 1024194
06:00+3ссз39790 0.0 1026181
09:00+9с58620 0.0 1027566
12:00+12с79460 0.0 10261687
15:00+13ссв79431 0.0 10261780
18:00+11ссв6105822 0.0 10251063
21:00+6с412755 0.0 1026250
11 мая, вт
вт1100:00+7ссв61568100 0.0 1026395
03:00+6ссв5137596 0.0 1025321
06:00+7ссв6148060 0.0 1025372
09:00+12св7127520 0.0 1024566
12:00+17св8126944 0.0 1023926
15:00+19всв8116859 0.1 10221549
18:00+13вюв41291100 2.0 1024883
21:00+10в35951 2.3 1025125
12 мая, ср
ср1200:00+7вюв36911 0.0 1027111
03:00+5вюв229466 0.0 102726
06:00+7всв2491100 0.0 1026104
09:00+11св4679100 0.0 1025542
12:00+9св3588100 0.3 1022367
15:00+8ююз2396100 6.1 1020237
18:00+8ююв3692100 0.5 1019410
21:00+6в379418 0.5 1020126
13 мая, чт
чт1300:00+7в61595100 0.0 1019407
03:00+9вюв5119899 6.1 1018456
06:00+9вюв5119666 0.8 1017391
09:00+13ююв6981100 0.9 1018917
12:00+16ю6868100 0.3 10181478
15:00+18ю47564 0.4 10171802
18:00+18ю35683 0.0 1017427
21:00+12юв3490100 0.0 101858